SKYSAT-C7

Last updated on Mon Sep 21 2026 00:02:46 GMT+0000 (Coordinated Universal Time)

1 42991U 17068E 26263.39164611 .00007896 00000+0 20937-3 0 9990 2 42991 97.4658 42.5204 0006763 119.7837 240.4082 15.38583934497000
UTC large
Height (km)
Speed (km/s)
/
Latitude / Longitude
Inclination (degrees)
Orbital Period (minutes)
Azimuth
Elevation
Range (km)
Doppler Factor

Next 0 passes for location: London (51.5072 / 0.1276)

No passes found over London.
SKYSAT-C7